Theta_e
298 298 296 294 292 292 292 293 295 298 301 302 302 305 311 314 315 313 314 316 316 319 321 319 316 315 314 313 312 313 313 312 311 311 311 312 312 312 311 310 311 312 312 313 313 314 316 315 313 314 314 313 313 312 311 311 311 314 318 319 319 320 319 317 317 318 316 315 312 311 311 309 311 317 316 314 316 320 324 325 325 326 321 319 322 320 328
298 298 297 295 292 292 292 293 295 299 301 301 302 307 311 311 313 313 313 315 316 318 319 319 318 316 314 312 312 312 312 311 311 311 312 312 312 312 312 311 312 313 312 312 313 314 316 315 313 314 314 312 313 312 310 312 314 315 319 321 319 319 319 319 317 318 321 321 317 317 318 313 313 317 317 316 316 318 323 322 321 323 320 317 319 320 324
298 298 297 296 293 292 292 293 295 299 302 303 303 307 311 312 315 315 313 314 317 318 318 317 318 317 315 315 315 312 312 312 311 311 312 311 311 312 313 312 313 313 313 314 314 312 315 316 314 314 314 313 312 311 311 313 315 317 320 321 319 319 320 319 318 318 322 324 319 318 317 314 314 315 314 316 318 319 324 324 320 322 322 319 320 321 324
298 298 297 296 294 292 292 293 296 300 303 304 304 307 312 314 317 316 314 315 316 317 316 313 314 315 314 315 315 313 312 313 311 311 311 311 311 311 311 312 312 313 314 315 315 312 313 314 314 312 313 312 311 311 312 313 314 317 318 317 318 318 318 317 317 318 321 320 314 311 311 312 313 313 313 315 318 319 320 320 319 322 324 323 322 322 322
298 298 297 296 294 292 293 295 297 301 304 304 305 309 313 314 315 313 311 314 316 316 314 312 312 314 313 313 314 313 313 312 312 312 311 311 311 311 310 311 312 313 315 316 316 315 313 312 314 314 314 312 310 311 312 313 316 316 313 315 316 315 316 318 315 314 315 312 309 310 310 310 310 311 313 315 318 319 315 315 320 321 321 324 323 319 319
298 297 297 296 294 293 293 296 298 301 304 303 304 308 310 310 313 312 310 313 316 316 313 310 310 311 313 314 313 313 314 313 313 313 312 311 311 312 313 312 311 311 312 314 315 315 314 315 317 318 317 315 313 313 311 312 316 315 311 313 315 313 316 317 313 312 312 309 309 310 309 309 310 312 315 315 317 318 315 315 318 316 316 321 320 316 316
297 297 297 297 294 293 294 296 299 301 303 303 302 303 304 306 309 310 309 311 314 314 311 310 311 312 313 314 313 313 315 314 312 312 313 314 312 312 313 313 310 310 312 313 315 316 318 319 320 319 318 318 317 316 314 312 313 312 311 313 317 318 317 315 311 313 312 310 311 311 309 311 311 311 313 313 313 316 315 315 316 315 315 319 319 318 317
297 297 297 296 294 293 294 295 298 301 303 304 302 301 301 303 305 308 308 310 312 313 311 311 312 313 313 313 312 310 311 312 310 309 312 315 312 310 311 311 309 310 311 311 312 314 316 319 318 316 316 319 317 315 315 314 312 311 311 315 319 319 317 314 314 316 315 311 311 311 310 310 311 311 314 315 316 317 317 318 319 318 316 318 320 321 317
297 297 297 295 294 293 294 295 298 300 302 304 304 302 299 300 303 305 307 310 312 313 312 311 312 311 311 312 311 309 308 308 309 309 309 310 310 309 310 310 310 309 309 309 310 310 312 314 314 312 312 314 313 312 313 312 312 312 313 316 317 316 316 315 314 316 317 312 309 311 310 310 313 314 316 318 317 316 316 317 318 316 315 318 320 319 315
297 297 297 296 294 294 293 294 297 299 301 302 303 303 299 299 301 303 307 311 313 311 309 308 310 310 309 309 308 308 307 306 308 311 310 307 308 308 308 309 310 309 308 307 308 307 308 310 310 309 309 308 308 309 309 308 310 311 312 316 317 315 316 317 315 316 315 311 311 313 311 312 315 315 314 316 317 316 316 317 315 314 314 316 315 313 312
297 297 297 297 295 294 293 294 296 298 299 300 302 303 300 299 302 304 308 312 312 308 307 307 307 308 306 306 306 306 307 306 306 309 309 307 307 307 307 308 309 308 306 305 306 306 306 307 309 309 308 308 307 307 307 307 307 308 309 313 315 313 313 315 316 315 313 312 314 315 313 313 315 313 312 314 315 316 317 315 312 312 313 313 311 309 310
297 297 297 297 295 294 293 294 296 298 299 300 302 303 300 300 303 305 308 311 309 305 306 306 305 305 305 305 305 305 306 306 306 308 309 308 307 307 306 307 308 307 304 304 304 304 305 307 308 307 308 307 307 306 306 306 307 307 308 310 313 314 312 313 314 314 313 313 314 313 311 313 313 310 311 313 313 314 316 313 309 309 311 310 309 309 308
297 297 298 297 295 294 293 294 296 299 300 300 303 304 301 300 303 305 307 309 306 303 304 304 302 304 305 305 305 305 306 306 306 308 309 307 307 307 306 305 305 304 303 304 304 304 306 308 308 308 308 306 306 306 306 306 306 307 307 308 311 314 315 314 314 315 315 312 312 312 311 311 313 311 310 312 312 314 318 314 308 306 308 308 308 307 307
297 297 298 297 296 294 293 294 296 299 300 301 303 304 302 300 302 304 306 308 307 302 302 304 303 304 306 305 304 305 306 306 306 308 308 307 306 306 305 303 303 303 303 304 304 305 307 308 308 309 309 307 307 309 308 306 306 307 307 307 308 310 314 315 313 315 316 312 312 314 311 309 313 313 310 311 311 312 314 313 308 305 305 306 306 306 306
297 297 298 297 296 294 293 294 296 297 299 300 302 304 302 299 301 303 304 307 308 305 302 303 304 305 305 304 303 304 306 306 306 306 306 306 305 305 304 302 302 303 303 304 305 307 308 308 308 309 309 308 308 310 308 306 307 308 308 308 308 308 311 313 312 314 315 313 311 311 309 309 312 312 309 309 309 308 310 312 309 306 304 304 305 305 305
297 297 298 298 296 294 293 294 295 296 298 299 302 304 302 299 300 302 304 307 308 305 302 302 304 304 304 303 303 303 304 305 306 306 306 307 304 302 302 302 302 304 304 304 305 306 307 308 307 308 309 308 307 308 309 306 307 308 307 307 309 310 312 315 314 312 312 311 310 309 309 309 310 310 307 306 308 310 311 311 308 305 304 304 304 304 305
297 297 297 297 297 295 293 294 294 296 297 298 300 303 302 298 299 302 304 307 307 303 300 300 302 303 303 303 304 304 303 304 305 306 306 306 302 301 302 302 303 304 303 304 305 306 306 307 306 307 308 306 305 307 309 307 309 310 308 307 309 312 314 315 313 310 310 310 309 309 310 310 308 308 306 305 307 310 312 311 307 304 303 305 304 303 305
297 297 297 297 297 295 293 294 294 295 297 298 299 302 302 299 299 301 303 306 306 302 299 300 301 302 302 302 303 304 303 303 304 305 305 304 302 302 302 301 303 304 303 303 305 306 306 307 306 306 308 306 305 307 308 308 309 309 309 309 310 311 313 313 311 310 310 310 309 309 309 309 307 307 307 305 306 308 308 306 305 303 303 304 303 303 304
296 297 297 297 297 295 294 294 294 294 296 298 299 302 301 299 299 301 302 304 305 302 299 299 300 300 300 300 301 301 302 302 303 304 305 305 303 301 302 302 302 302 302 303 304 305 306 307 306 305 307 308 308 307 306 306 307 306 307 311 312 311 311 311 311 310 309 309 310 309 308 308 308 307 306 305 307 307 306 305 304 303 303 303 302 303 303
296 297 297 297 296 295 294 294 294 295 297 298 299 301 302 299 298 299 300 303 304 302 299 299 299 298 299 300 299 300 301 302 302 302 303 304 303 302 305 306 303 302 303 303 304 304 305 306 306 305 306 308 308 307 305 305 305 304 305 308 310 310 311 311 309 308 308 308 308 307 306 307 308 307 304 303 305 305 304 303 302 301 301 300 300 301 301
296 297 297 296 295 294 293 294 295 296 298 298 299 301 302 299 297 298 299 301 303 302 299 299 299 298 299 299 298 299 300 301 301 301 301 302 302 302 304 303 301 300 301 302 303 304 303 303 304 303 303 305 306 306 305 305 305 304 303 305 306 305 306 307 306 306 307 307 306 307 306 305 304 303 301 301 301 300 300 300 300 300 299 299 299 300 299
295 296 296 295 294 293 292 294 295 297 298 298 298 300 301 300 297 298 300 301 302 301 299 299 299 298 298 298 297 298 299 299 299 300 300 302 303 302 301 301 300 300 300 301 302 303 302 302 302 301 302 303 303 303 303 304 305 304 303 305 305 302 302 304 304 303 303 303 304 306 305 301 300 301 300 300 299 299 299 300 300 300 300 300 300 300 300
295 296 296 295 293 291 292 294 295 296 297 298 298 299 301 300 298 298 299 300 301 301 299 298 300 300 298 298 298 298 298 298 298 299 299 301 303 303 301 301 301 300 301 301 301 301 301 301 301 301 301 301 302 302 304 304 303 302 302 303 302 300 300 302 302 302 303 301 300 300 299 298 299 300 300 299 299 299 300 300 300 300 301 300 300 300 300
295 295 295 294 292 291 292 294 295 295 297 298 298 299 301 300 298 298 299 300 301 302 300 298 300 301 299 298 298 297 297 297 298 299 299 300 302 302 302 301 300 300 301 301 300 300 300 300 300 301 300 300 301 303 304 303 301 300 303 304 301 299 300 301 300 302 304 303 299 298 298 299 299 299 299 299 299 299 300 300 300 301 301 301 300 300 300
295 295 294 294 292 292 293 294 294 295 296 297 298 300 301 300 298 297 298 300 301 302 301 300 300 299 298 297 297 297 297 297 297 298 299 298 299 301 301 300 299 300 301 301 302 302 302 301 301 301 300 300 302 302 302 303 302 301 302 303 301 300 300 300 299 300 301 300 298 298 299 300 299 299 299 299 299 299 299 300 300 300 300 299 299 299 300
295 295 294 294 293 293 294 294 295 295 296 296 298 300 301 300 298 297 297 299 300 301 302 300 299 298 298 298 297 297 297 297 297 297 298 298 298 299 299 299 300 300 300 301 302 302 301 300 301 301 300 301 301 301 301 302 302 301 301 301 300 300 300 299 299 300 300 300 299 299 300 301 299 299 299 300 299 299 299 300 300 300 299 299 299 299 299
295 295 295 294 293 293 294 295 296 296 296 297 298 299 300 300 298 297 297 299 301 301 301 301 300 298 298 297 297 297 297 297 297 297 297 297 298 298 298 299 301 302 301 302 302 301 300 301 301 300 301 301 300 300 301 300 300 300 300 300 300 300 299 299 301 302 301 300 299 299 300 301 300 299 299 300 299 299 300 300 300 300 300 300 299 299 299
295 295 295 294 294 293 294 295 296 297 297 298 298 299 300 300 298 295 295 298 301 301 300 300 300 298 299 299 298 297 297 297 297 297 297 297 297 297 297 298 301 302 302 302 302 301 300 301 300 300 300 300 301 301 301 299 299 299 299 299 299 299 299 299 300 300 299 299 300 299 300 300 300 299 300 299 299 299 299 299 299 300 300 299 300 300 300
295 295 294 294 294 293 293 295 296 297 298 299 300 300 301 300 298 294 293 296 300 301 301 301 301 299 299 299 297 296 296 297 297 297 297 297 297 297 297 298 300 302 301 300 300 300 300 300 299 299 300 300 300 300 299 298 298 299 298 298 299 299 300 300 300 299 299 300 300 299 299 299 299 299 299 299 299 299 299 299 300 300 298 298 298 299 299
295 295 295 294 293 293 294 294 295 296 298 299 300 301 301 300 297 294 292 294 298 300 301 301 301 300 299 298 298 297 296 297 297 297 297 297 297 297 297 297 299 300 300 300 300 299 299 299 298 299 300 300 299 299 298 297 297 298 298 298 299 299 300 300 299 299 299 299 299 299 299 299 299 299 298 299 298 298 299 300 299 298 297 297 297 297 295
295 295 295 294 293 293 294 294 294 296 298 298 299 300 301 299 297 294 292 293 297 300 301 301 301 300 299 298 298 297 296 296 297 297 297 297 297 297 296 297 298 298 299 299 299 298 298 298 298 299 300 299 299 299 297 297 297 297 297 298 299 299 299 300 300 299 299 299 299 299 299 299 300 299 299 298 298 298 298 298 297 296 296 296 295 294 294
295 295 295 294 294 293 294 294 294 295 297 297 297 298 298 298 296 294 292 293 296 300 301 301 299 298 298 299 299 298 297 297 297 298 298 297 298 297 296 297 298 298 298 298 297 297 298 298 298 298 299 299 299 298 297 296 297 297 297 298 299 299 299 299 299 299 299 300 299 299 299 299 299 299 299 298 298 297 297 296 295 295 295 295 294 294 293
295 295 295 295 294 294 295 295 295 296 297 297 297 298 298 298 297 295 292 293 298 301 301 299 298 297 298 299 299 298 297 298 299 299 299 298 297 298 298 299 298 298 298 297 297 297 297 298 298 298 299 299 299 298 297 297 297 298 298 299 299 298 299 299 299 299 299 299 299 299 299 298 298 298 298 298 296 296 295 295 295 295 295 294 293 293 293
294 294 295 295 294 295 296 296 296 297 298 299 300 300 299 298 297 294 293 296 300 301 299 298 298 298 298 299 299 299 298 298 299 299 299 298 297 297 298 299 298 298 297 297 298 298 297 298 299 299 299 300 299 297 297 297 298 298 299 299 299 299 300 300 300 299 299 299 299 298 298 298 298 298 297 296 295 295 295 295 294 294 294 293 293 292 292
294 294 295 296 295 296 297 297 297 298 299 300 301 300 297 295 294 293 294 298 301 301 299 298 298 299 299 300 300 299 298 298 299 299 299 298 298 297 298 298 298 298 297 297 298 298 297 298 299 299 299 299 298 297 298 298 298 298 299 299 299 299 299 299 299 298 298 299 299 299 298 297 298 298 297 295 295 294 294 294 294 294 293 293 293 292 292
294 295 295 296 296 297 298 299 299 299 300 299 298 296 294 294 293 293 294 297 300 300 299 299 298 299 300 299 299 298 298 299 299 298 298 299 298 298 297 297 298 298 298 298 299 299 298 298 299 298 298 298 298 298 299 298 298 298 299 299 299 298 298 298 298 298 298 299 299 299 298 298 297 297 296 294 294 294 294 294 294 294 293 292 292 292 292
296 297 297 297 298 299 300 300 300 300 299 296 295 295 295 295 295 296 297 298 300 300 299 299 300 300 299 298 298 297 298 299 299 298 299 299 298 297 297 297 297 297 297 298 299 298 298 298 298 298 298 299 299 299 299 299 299 299 299 299 299 298 298 299 299 298 298 299 298 298 297 297 296 296 295 294 294 294 294 294 294 293 293 292 291 291 291
298 298 299 300 300 301 301 301 299 298 297 296 296 297 298 298 299 300 300 300 300 300 299 299 301 300 298 299 299 298 298 300 300 299 298 298 297 297 298 297 297 297 297 297 298 297 297 297 298 298 298 299 298 299 299 300 300 300 300 300 299 298 298 299 298 298 298 298 297 297 297 296 295 295 295 294 294 293 294 294 293 293 292 292 291 291 290
299 299 300 301 301 300 299 300 299 298 297 298 298 299 300 299 299 299 300 299 299 299 300 300 300 300 298 299 300 299 298 299 300 299 299 298 297 297 297 296 296 296 296 296 297 296 297 297 297 297 297 298 298 299 299 299 300 300 300 299 298 298 298 298 298 297 298 298 297 296 296 295 295 295 295 294 294 294 293 293 293 292 292 292 292 291 291
298 298 298 299 299 298 297 298 298 298 298 298 299 298 298 298 298 298 299 298 298 299 299 299 300 299 298 299 300 299 298 298 299 299 298 298 298 298 296 296 296 296 295 295 296 296 296 297 296 295 297 298 299 298 298 299 299 300 299 298 297 297 297 297 297 297 297 297 296 295 295 295 295 295 295 295 294 294 294 293 292 292 292 292 292 292 291
297 297 296 296 296 296 297 297 298 298 298 298 298 297 298 298 298 298 298 298 298 298 299 299 299 299 299 299 299 299 298 298 299 298 297 298 298 297 296 296 296 295 294 295 296 296 296 296 295 296 298 299 299 298 298 298 298 299 298 297 296 297 297 297 297 297 296 296 295 295 295 295 295 295 295 295 294 294 293 292 292 292 291 291 291 292 291
295 295 295 296 296 297 298 298 299 299 298 297 297 297 297 297 298 298 298 298 299 299 298 298 298 299 299 298 298 298 298 298 298 298 297 297 297 297 296 296 295 294 294 296 296 295 295 295 295 297 299 299 299 299 298 297 298 299 298 296 296 297 297 296 296 296 296 296 295 295 295 295 295 295 294 294 293 293 292 292 292 292 291 291 291 291 291
296 296 297 297 298 298 298 299 299 298 297 297 297 297 297 297 297 298 298 298 298 298 299 299 298 298 298 298 298 298 298 297 297 297 297 297 296 296 295 295 295 295 295 296 296 295 295 295 296 297 298 298 298 298 298 297 298 299 298 296 296 297 297 296 296 296 296 295 295 295 295 295 295 294 293 293 292 292 292 291 291 291 291 290 291 291 291
297 297 297 298 299 298 298 298 299 299 297 296 296 297 297 298 299 299 299 299 299 299 299 300 300 299 298 299 299 298 297 297 297 297 297 297 296 295 295 295 296 296 295 295 295 295 295 296 298 298 297 297 298 298 296 296 298 299 298 297 297 297 296 296 296 295 295 295 295 295 295 295 294 294 293 292 292 292 292 291 291 290 290 290 290 290 290
297 297 297 297 298 298 297 297 298 298 298 297 298 298 299 300 301 301 300 299 300 300 300 300 300 299 299 299 298 298 297 297 296 297 296 296 296 295 295 296 296 295 295 295 295 295 295 297 299 298 296 297 298 297 295 296 298 298 298 298 297 296 295 296 295 294 294 295 295 295 295 295 294 293 292 292 292 292 291 291 290 290 290 289 290 290 290
297 297 296 296 297 298 297 297 297 298 298 299 299 299 299 299 300 300 300 299 299 299 300 300 299 299 299 299 298 298 298 297 297 296 296 296 295 296 296 296 296 295 295 295 295 295 296 298 299 298 296 297 297 295 295 296 297 297 298 299 299 297 296 295 295 295 294 295 295 295 295 294 294 293 292 292 292 292 291 291 290 290 290 289 289 289 289
296 296 295 296 297 297 297 297 298 298 298 298 299 298 299 300 300 300 300 300 300 300 299 300 299 299 298 298 298 298 298 297 296 296 296 295 295 295 295 295 295 294 294 294 295 295 296 298 298 298 297 297 296 295 295 296 297 297 298 300 300 299 296 295 295 295 295 295 295 295 295 294 294 293 292 292 292 292 292 291 291 290 290 289 289 289 289
295 295 295 296 296 297 297 298 298 297 297 298 297 298 299 300 300 300 300 300 300 300 300 299 299 298 298 298 298 298 297 297 297 297 296 296 296 296 296 295 295 294 294 295 296 296 297 298 299 299 297 296 296 296 295 296 296 296 297 299 300 298 297 296 296 296 296 296 295 295 295 295 294 293 293 292 292 292 292 291 291 290 290 290 289 289 288
295 295 295 295 296 297 298 298 297 296 297 297 298 299 299 299 299 299 300 301 301 300 299 299 298 298 297 297 297 297 297 297 296 296 296 296 295 295 295 295 295 295 295 296 297 298 298 298 298 298 297 296 296 296 296 296 296 296 296 297 298 297 297 297 297 297 296 296 296 296 295 295 294 294 293 292 291 291 291 291 291 290 290 289 289 288 288
295 295 295 295 296 296 297 297 297 297 298 298 298 299 299 299 299 299 299 299 300 299 299 298 298 297 296 295 295 296 296 296 296 296 296 296 295 295 295 295 295 295 296 298 299 299 298 297 297 297 297 297 297 297 297 297 297 295 295 295 296 296 296 297 298 297 297 296 296 296 296 296 296 294 293 292 292 291 291 291 291 290 289 289 289 288 288
295 295 295 295 296 296 296 297 297 297 297 296 297 298 298 299 300 299 298 298 299 299 298 297 297 297 296 296 296 295 296 296 295 295 296 296 295 295 296 296 296 297 298 299 299 299 298 298 298 299 298 297 297 297 297 296 295 295 294 295 295 296 296 296 297 297 297 297 297 297 296 296 296 294 293 292 292 291 290 290 291 290 289 289 289 288 288
295 295 295 296 296 295 296 296 296 296 296 296 297 297 298 299 299 299 298 298 299 299 298 298 297 297 297 296 296 296 296 296 296 295 295 295 295 295 296 297 298 298 299 299 299 300 300 299 299 299 299 298 297 296 296 295 295 295 295 295 295 296 296 296 297 297 297 297 297 297 297 297 296 294 292 292 292 291 290 290 290 290 290 289 289 288 288
Wind_Speed
30 32 37 40 42 42 43 43 42 45 43 35 28 16 5 1 4 16 9 15 17 5 1 4 2 3 5 7 9 10 8 9 9 7 5 4 1 1 2 4 5 3 1 2 3 2 2 2 1 4 5 4 5 7 11 9 7 5 3 2 3 2 3 2 2 4 5 8 10 10 9 7 4 2 2 2 2 4 5 4 2 1 3 2 3 0 4
30 32 35 40 42 42 43 43 41 40 40 34 22 8 3 3 3 10 11 6 7 2 3 4 4 4 6 8 10 10 9 9 9 5 3 3 3 3 3 3 2 3 4 4 3 2 1 2 3 1 4 7 4 1 6 8 8 4 2 2 1 1 1 2 1 3 5 6 6 7 8 6 3 3 5 4 3 5 4 2 3 2 2 2 4 1 3
31 32 34 38 42 43 43 44 41 35 35 35 19 3 2 4 2 4 6 6 5 2 3 3 4 4 6 6 6 6 7 8 7 5 3 2 3 4 4 3 3 2 4 5 5 1 2 1 3 2 2 6 7 6 5 7 6 3 5 5 3 1 1 3 4 2 1 1 0 2 5 5 2 4 7 6 6 7 4 2 4 1 3 4 3 3 3
31 32 33 36 41 43 43 44 43 34 31 34 20 4 2 3 2 3 4 3 1 2 3 3 3 5 5 4 4 4 5 6 6 5 2 2 5 5 5 5 4 4 5 4 6 5 1 1 3 3 2 3 5 6 8 9 7 5 7 8 5 2 1 2 3 5 5 4 3 3 4 4 4 7 8 6 5 6 5 4 1 2 0 3 1 4 2
32 32 33 36 40 43 42 43 44 35 28 29 17 3 1 3 1 4 4 4 4 3 4 4 3 5 4 2 4 4 4 4 4 4 2 5 7 6 6 5 3 4 4 2 3 5 6 6 6 6 6 3 3 7 10 9 7 6 6 5 4 3 1 1 1 2 3 5 7 8 7 6 5 7 8 7 7 6 5 2 4 3 3 3 3 3 1
32 31 32 35 38 42 42 42 44 36 27 26 17 3 2 3 1 3 4 3 4 4 5 5 5 8 6 2 4 6 5 4 3 2 3 5 7 5 5 7 7 8 7 2 1 3 3 5 6 7 7 5 3 5 7 6 6 5 4 3 5 4 1 3 2 4 5 5 7 7 7 7 7 6 6 7 7 7 5 4 5 2 2 5 5 2 3
32 31 31 34 37 40 41 41 43 37 26 25 19 7 3 4 2 4 5 3 5 6 8 7 5 7 7 4 5 6 6 7 5 3 3 5 6 6 6 9 12 13 11 8 4 3 2 3 4 4 5 4 3 3 4 2 3 4 2 0 3 4 1 2 1 2 4 5 7 8 7 7 7 6 7 7 6 5 4 3 4 3 1 3 2 4 4
31 31 32 34 37 39 39 39 41 39 30 25 18 9 6 4 2 4 5 5 5 5 8 7 3 6 8 6 7 7 9 10 7 4 6 4 4 5 6 10 12 12 14 12 8 7 6 4 3 4 5 5 3 2 2 1 2 2 1 1 3 3 1 1 3 3 5 5 6 8 8 7 6 7 7 6 5 6 5 3 5 5 3 4 6 8 6
31 31 32 35 37 37 37 37 38 39 34 23 11 9 12 9 7 6 4 4 5 4 4 4 4 5 6 5 6 8 12 13 9 6 10 11 9 6 7 10 10 10 14 13 9 10 9 6 5 5 4 4 4 3 2 3 4 3 2 1 3 3 1 1 5 3 3 4 5 7 7 7 7 6 7 6 5 5 4 4 5 4 3 6 9 7 2
31 30 31 34 37 36 35 36 36 37 36 23 8 8 17 15 11 9 4 3 5 4 4 6 5 4 6 7 8 8 12 14 10 5 8 14 14 11 10 10 7 7 11 10 9 11 11 8 7 5 4 5 5 4 5 5 3 2 2 2 2 3 2 1 3 2 2 3 5 6 7 7 5 4 7 7 4 4 5 6 8 8 5 5 5 3 2
30 30 31 33 35 35 34 33 34 35 36 27 10 8 17 16 9 7 4 2 5 5 6 8 6 6 9 10 11 10 10 12 10 6 6 10 12 11 10 10 6 4 6 7 8 10 11 10 8 5 4 6 6 5 6 6 4 2 1 1 1 2 2 1 2 2 2 1 4 6 5 3 3 2 6 8 7 7 6 7 10 11 7 4 4 5 6
29 30 30 32 33 33 33 31 31 32 33 30 16 10 19 20 9 5 3 3 6 8 6 7 9 10 12 11 9 9 9 8 8 7 5 6 9 9 8 8 6 3 5 8 8 10 10 8 7 6 5 6 7 7 6 7 6 5 3 2 3 3 1 2 2 3 2 2 6 4 2 3 2 5 9 8 8 8 8 11 13 12 9 8 9 9 8
29 30 29 30 31 31 31 29 29 29 29 30 22 13 20 24 11 3 3 3 5 7 6 7 11 13 13 12 9 8 9 9 7 6 5 4 6 6 5 6 5 3 5 8 9 9 7 5 5 5 6 5 6 6 8 9 7 7 6 4 4 5 4 2 2 2 2 2 3 2 4 2 4 8 8 7 7 7 7 9 12 12 10 8 8 8 9
29 30 29 29 29 29 29 27 28 28 26 27 24 17 20 24 13 3 3 3 3 6 5 6 10 12 11 12 10 8 8 9 7 5 3 3 3 5 4 5 4 4 4 5 6 5 3 3 3 3 4 3 3 4 5 6 8 9 10 8 6 6 4 3 2 1 3 4 2 2 2 6 6 5 6 5 4 4 3 5 6 9 10 8 7 8 9
29 30 29 29 29 27 26 25 26 27 26 25 22 17 20 25 17 7 4 1 1 4 5 5 7 9 8 9 10 8 6 7 7 6 4 3 3 5 5 4 3 3 3 2 2 2 1 1 1 1 1 1 1 2 2 3 4 6 7 7 6 6 5 5 3 1 3 4 1 1 1 2 2 3 6 6 4 3 1 4 3 7 9 9 8 8 8
29 29 29 29 29 26 24 23 24 26 26 26 23 18 20 26 23 14 6 2 1 3 5 6 6 7 6 6 8 7 4 4 5 5 5 5 5 5 5 3 2 2 2 3 2 1 1 1 0 1 1 1 2 2 1 2 2 1 3 4 2 4 4 5 5 2 3 4 3 1 1 2 2 4 7 7 7 6 4 4 2 5 7 8 8 7 8
28 29 29 28 28 26 22 20 21 23 25 27 24 18 18 25 27 19 8 2 3 3 4 8 7 5 4 5 5 6 4 4 5 3 3 4 6 8 8 5 1 1 2 2 1 1 1 1 0 1 2 3 3 2 2 3 3 3 6 6 6 6 5 4 4 3 2 3 2 1 1 1 1 5 7 7 6 6 6 2 2 5 7 6 7 7 7
27 28 28 28 27 26 21 18 19 20 23 26 23 16 16 23 27 22 10 3 3 3 5 10 9 4 5 6 4 4 4 4 4 3 3 4 5 8 9 6 3 3 3 2 1 1 1 1 1 1 1 3 3 2 2 3 3 3 3 3 4 4 3 3 4 2 2 3 2 1 1 0 3 6 8 8 5 5 4 1 3 4 6 5 5 6 6
26 27 28 28 27 26 21 17 17 18 20 24 23 15 15 22 26 23 13 4 2 3 6 10 11 7 7 7 5 4 6 6 5 4 3 3 5 9 9 5 5 5 5 4 3 3 2 2 2 2 2 3 3 2 2 2 2 2 3 3 2 2 2 2 2 2 1 2 2 1 1 1 3 5 7 6 3 1 1 3 3 4 5 5 5 5 5
26 26 27 27 27 26 21 16 15 17 19 23 23 17 14 20 23 22 15 6 1 3 5 8 11 9 8 8 6 5 5 5 4 5 3 3 6 8 6 4 5 5 5 5 5 3 3 3 3 2 2 2 1 0 1 1 2 3 3 2 1 1 1 1 1 1 2 2 2 2 1 3 4 3 4 5 2 1 2 1 2 4 5 7 7 6 6
26 26 26 27 27 25 20 14 14 16 18 21 22 16 14 20 24 22 19 10 2 1 4 5 9 10 8 7 6 6 7 5 3 3 3 4 5 4 3 4 5 4 3 4 3 3 3 3 3 2 2 2 1 1 2 1 2 3 3 2 2 2 1 1 1 1 2 3 2 1 2 2 0 2 2 2 3 4 5 4 4 6 6 6 5 6 7
25 25 25 26 27 25 19 13 12 14 16 19 20 16 14 20 25 24 20 11 2 2 2 2 3 6 6 5 6 8 9 8 7 7 3 3 4 4 4 5 6 3 2 2 2 2 3 3 2 3 3 3 2 3 4 2 2 3 2 3 2 3 2 2 1 1 2 2 1 2 2 2 5 4 3 5 8 8 7 6 5 4 4 4 4 5 6
24 25 25 25 27 24 17 12 11 12 13 16 20 19 15 16 21 23 19 10 3 2 5 8 5 2 5 11 11 10 9 7 7 8 5 3 3 4 4 4 4 3 2 3 3 2 3 3 2 2 2 3 3 3 4 3 3 3 4 3 3 3 4 3 1 2 2 1 3 6 6 6 6 5 6 8 8 6 6 6 4 4 4 4 4 5 6
22 24 24 24 25 21 16 13 11 9 11 14 18 20 15 11 17 23 18 9 4 3 6 10 7 3 5 10 12 10 10 8 6 6 5 5 5 3 2 3 3 3 3 5 5 2 2 3 2 1 2 3 3 3 2 3 3 3 4 3 2 4 5 4 2 3 2 1 6 9 7 5 6 8 8 8 7 6 6 5 4 4 5 5 5 5 6
20 23 23 22 21 18 15 14 11 8 9 12 15 19 16 13 17 20 13 5 3 2 2 2 2 3 6 7 8 9 8 8 8 5 5 6 7 4 1 3 2 1 3 4 5 4 2 2 2 2 3 3 3 3 2 1 1 3 3 2 1 3 5 3 3 3 1 1 6 9 6 5 7 8 6 6 7 7 6 5 5 6 5 6 7 7 6
19 21 21 20 18 15 13 13 12 10 9 10 12 16 15 14 18 19 13 7 4 0 1 1 1 6 9 7 6 7 6 8 9 6 6 6 6 8 3 4 3 1 2 2 4 3 2 2 2 2 2 2 2 2 1 2 2 3 3 3 3 3 3 2 3 4 2 3 7 9 7 7 8 8 6 6 6 7 8 7 7 7 7 7 9 9 7
17 19 21 19 16 13 12 12 12 11 10 9 10 11 11 13 17 18 15 11 5 1 1 3 1 5 8 6 6 7 5 7 6 6 7 7 4 5 4 1 2 1 3 3 4 2 1 2 2 1 0 1 1 2 1 1 2 2 2 4 3 4 3 3 3 4 3 3 5 5 3 3 6 7 7 7 7 7 7 7 6 7 7 7 8 8 9
16 18 21 19 16 12 10 10 10 11 12 11 9 7 6 9 14 16 15 12 7 1 2 4 2 3 5 6 7 9 7 4 2 3 6 8 7 3 1 3 3 2 2 2 2 2 1 2 2 0 0 1 2 2 2 3 3 1 2 2 2 4 3 2 4 2 2 3 3 3 1 3 5 6 6 7 6 6 6 7 6 6 6 6 6 7 8
15 18 20 19 16 12 9 8 9 9 13 16 13 7 3 3 9 16 16 12 9 4 2 3 3 2 2 2 5 10 9 6 5 6 5 6 7 5 4 6 3 3 3 2 1 1 2 2 2 0 1 1 1 1 3 3 2 1 1 3 4 4 4 5 5 2 2 3 4 4 2 3 4 5 6 6 6 6 5 6 5 5 6 7 7 6 7
14 17 19 18 16 12 9 9 9 8 12 16 12 6 1 1 7 17 17 12 9 7 2 1 2 2 3 1 1 5 7 7 7 5 3 3 5 6 6 5 1 2 3 2 2 2 1 2 1 1 2 2 2 1 1 2 1 1 3 5 5 4 4 4 4 2 1 2 3 3 4 4 4 5 5 5 7 7 5 5 5 6 9 11 9 7 10
14 16 18 18 16 12 9 9 8 7 11 14 9 2 1 1 7 16 17 12 10 6 1 1 2 2 1 1 3 5 3 6 5 4 2 3 6 5 6 6 3 1 1 1 1 0 1 2 1 0 1 1 2 1 1 2 2 1 2 3 3 4 3 2 3 3 3 3 5 5 4 4 4 5 4 5 8 8 6 5 8 11 12 12 11 12 14
15 16 17 16 15 12 9 8 8 8 9 10 6 1 2 3 9 15 15 12 10 4 1 2 2 1 1 2 4 3 2 3 4 4 1 3 3 2 4 1 3 2 1 2 1 0 1 2 2 1 2 2 2 2 1 2 2 1 1 1 3 3 2 2 3 4 4 5 5 4 4 4 4 4 3 4 7 8 7 7 11 13 12 12 13 14 14
15 16 16 15 13 11 8 6 6 7 8 8 6 3 4 6 10 14 12 10 8 4 2 2 2 1 1 1 1 3 5 3 3 0 1 3 2 1 1 2 2 1 1 2 1 1 1 1 2 2 1 2 2 2 1 3 3 3 3 3 4 3 2 3 4 4 4 5 4 2 3 4 3 3 2 4 6 10 10 9 11 11 11 10 10 11 12
15 15 15 13 12 10 8 6 6 8 10 7 4 3 4 8 11 12 10 7 6 4 2 1 1 2 2 0 1 3 5 4 1 2 1 4 3 2 0 1 0 1 1 1 1 1 1 1 2 1 0 1 2 2 2 4 2 5 5 4 5 5 4 5 5 4 4 4 4 2 2 3 3 4 3 4 7 9 10 9 9 8 7 6 7 8 8
15 14 13 12 12 11 10 8 8 9 8 5 2 4 9 12 11 8 6 3 2 1 2 1 1 2 3 2 1 2 4 3 1 1 1 3 3 2 1 1 1 1 1 1 1 1 2 2 1 1 1 2 2 2 3 2 3 5 5 4 5 5 4 3 3 4 4 4 3 3 4 4 4 4 4 5 6 7 7 7 7 7 5 5 7 7 7
13 12 12 14 14 12 10 8 7 6 5 6 8 12 13 11 7 5 4 2 2 2 1 2 2 2 2 2 1 2 3 3 2 2 1 1 1 0 1 1 1 2 1 1 1 2 2 1 1 1 2 2 2 2 3 4 4 4 4 4 4 3 1 2 2 3 5 4 3 4 4 4 4 4 4 5 5 6 6 6 6 7 6 6 7 7 6
12 13 16 16 12 8 5 4 3 2 6 11 13 12 9 6 5 4 4 4 5 5 2 1 2 2 1 1 1 1 2 2 2 2 2 2 2 1 0 1 1 1 1 0 2 3 2 2 2 2 3 3 3 4 5 6 5 4 5 4 3 3 2 3 3 3 4 4 4 5 4 4 4 4 4 4 5 5 4 4 5 6 6 6 6 6 7
13 14 14 10 4 2 1 1 2 7 11 11 9 7 4 2 2 2 2 2 4 5 3 2 3 3 1 1 2 2 2 1 3 2 1 1 1 2 1 0 1 0 0 2 2 1 0 1 2 3 4 2 4 5 5 6 6 5 6 5 4 3 2 3 2 3 3 3 3 3 3 3 4 3 3 4 4 3 3 3 4 6 5 4 5 7 9
14 13 10 5 1 1 3 5 7 11 11 7 3 2 1 2 1 1 2 2 2 2 2 2 3 3 1 1 1 1 3 1 2 2 2 0 0 0 1 1 1 1 0 2 2 2 1 1 2 2 2 1 4 4 3 5 6 5 5 5 5 2 1 2 1 3 2 2 3 3 2 3 3 3 2 3 3 1 4 2 4 6 5 5 6 7 8
13 11 7 3 3 6 10 11 12 10 7 3 2 1 1 1 1 1 1 1 1 1 2 2 3 2 1 2 1 0 2 1 1 2 2 1 1 1 0 1 1 1 1 2 1 1 1 1 1 1 2 1 3 4 3 5 6 5 4 5 6 4 2 3 1 3 5 5 5 5 5 5 5 3 1 1 3 3 5 2 3 3 4 6 7 7 7
11 9 6 6 10 15 17 14 10 6 3 1 1 1 1 1 2 1 1 2 2 1 1 1 1 0 1 2 2 1 0 1 1 0 1 2 1 1 1 1 1 1 1 2 1 0 1 1 1 2 3 4 4 4 4 4 5 5 5 6 6 5 2 2 2 5 7 5 4 4 5 6 4 2 1 3 4 5 4 3 3 1 3 6 7 8 8
8 9 11 14 18 18 14 8 4 3 1 0 1 1 1 1 2 1 1 2 2 1 1 1 1 2 2 1 1 1 2 1 0 1 0 2 0 1 1 1 1 0 2 2 1 1 1 1 2 3 3 5 5 5 5 5 5 5 6 7 6 4 3 3 4 6 7 7 5 5 5 4 2 1 2 5 6 3 3 4 3 1 3 6 8 9 7
9 9 11 12 10 7 4 3 2 2 1 1 1 1 2 2 1 1 2 1 1 1 1 1 1 2 3 1 1 1 3 2 1 1 1 2 0 0 1 1 0 1 2 2 1 2 2 2 3 3 4 6 5 5 5 5 4 6 6 7 7 7 6 5 4 4 6 8 6 4 4 2 3 2 1 4 6 3 2 3 2 1 2 5 8 8 6
11 7 5 4 3 2 2 1 0 1 1 1 1 1 2 2 2 2 2 1 0 1 2 3 3 2 2 1 0 1 1 2 2 1 1 1 1 0 1 1 2 2 1 1 2 2 2 3 3 2 4 5 4 4 5 4 5 6 5 6 8 10 8 6 5 4 5 6 5 4 3 3 4 2 1 2 3 3 4 4 4 5 6 6 8 9 7
7 4 1 1 2 1 0 1 1 0 1 2 2 2 3 4 4 2 2 2 1 1 1 2 3 2 1 1 1 1 0 1 1 0 1 0 0 1 1 2 1 1 1 2 3 2 2 4 4 1 5 6 5 5 4 3 4 6 6 5 7 9 8 7 6 6 6 7 7 6 6 7 7 5 4 2 1 1 3 5 5 6 7 7 7 9 9
3 2 1 2 2 1 0 1 2 1 1 2 3 3 4 4 4 1 1 2 2 3 3 4 4 4 2 1 1 0 1 1 1 1 0 1 1 1 1 1 1 1 1 2 3 3 4 6 4 2 5 6 5 5 4 4 4 6 6 5 5 7 8 8 8 8 9 10 10 9 9 8 8 7 7 3 0 2 4 4 4 4 5 6 7 9 9
2 2 1 1 2 1 1 2 2 2 3 3 4 4 4 3 2 1 1 2 3 4 4 4 4 3 1 1 0 1 1 1 1 1 0 0 1 2 0 0 1 1 1 2 3 4 4 5 2 3 6 6 5 6 5 4 3 4 6 6 5 6 8 9 8 8 9 11 10 9 8 7 8 7 7 7 4 3 5 5 4 3 4 5 6 7 8
2 2 1 1 1 2 2 2 3 4 5 5 5 5 5 4 3 3 2 2 4 4 3 3 4 2 0 0 0 1 1 0 1 1 1 1 1 1 0 1 2 2 2 3 4 4 5 5 4 6 6 6 6 6 4 3 2 3 5 6 6 6 8 9 9 9 9 10 9 9 9 8 8 8 5 8 8 6 5 4 3 3 4 4 5 7 8
2 2 2 1 1 2 3 3 4 6 6 5 5 4 4 4 4 5 4 2 3 4 3 4 4 2 0 0 0 2 1 1 1 1 1 1 1 1 1 2 3 2 2 3 4 4 5 4 3 4 5 5 5 5 4 3 3 3 4 5 6 8 9 10 11 11 11 11 10 10 11 10 9 8 6 10 11 7 5 4 4 4 3 4 4 6 7
2 2 2 2 2 3 3 3 4 5 5 5 5 4 3 3 3 3 4 3 2 3 3 3 3 2 0 0 1 1 2 1 1 2 2 2 2 2 2 3 4 3 3 4 4 4 3 2 2 4 5 5 5 5 5 5 4 4 5 5 7 9 11 11 12 13 13 12 11 12 12 11 11 9 7 10 11 9 7 6 5 4 3 3 3 3 5
2 3 3 3 4 4 3 3 4 5 5 5 6 5 4 3 2 2 2 1 2 3 2 1 1 2 1 1 1 2 1 1 1 2 3 3 2 2 3 4 4 4 4 5 4 4 4 3 1 4 6 6 6 5 5 5 5 5 6 6 6 7 10 11 12 13 13 13 12 13 14 13 11 6 8 11 10 11 11 8 5 5 5 2 1 2 3
3 2 3 3 4 4 4 4 4 5 5 5 5 5 4 3 3 2 3 3 1 1 1 1 2 2 1 2 2 1 1 1 1 3 3 3 2 3 4 4 4 4 4 4 4 4 5 5 3 3 5 6 5 5 6 5 5 5 6 6 6 7 9 10 11 12 13 13 12 13 14 15 13 7 9 10 7 7 10 10 8 8 7 4 3 3 4
Wind_Direction
358 358 1 3 3 3 2 2 3 2 2 357 354 349 311 244 285 298 306 137 138 111 159 227 247 222 238 246 251 257 256 259 259 255 283 308 261 221 235 261 277 273 305 310 301 322 300 266 190 173 165 98 45 353 356 26 54 54 73 63 348 358 78 77 299 294 308 314 315 316 320 335 351 322 344 65 128 130 135 170 193 219 224 166 117 186 271
358 357 360 3 4 4 3 3 2 2 4 358 348 338 302 293 267 296 297 200 171 132 174 231 262 238 244 249 250 258 262 261 261 264 291 304 307 312 274 259 300 4 354 332 321 359 35 320 306 240 119 110 120 28 13 40 55 41 40 87 253 299 72 100 52 346 339 336 332 331 340 2 18 316 334 359 36 65 76 68 53 22 292 101 120 199 264
358 358 359 1 4 5 4 3 2 360 1 360 351 277 266 310 247 274 284 238 213 192 186 216 237 259 270 259 261 279 280 271 272 284 283 284 336 335 318 341 12 344 331 335 332 338 146 166 299 294 113 135 159 159 107 75 75 66 42 61 106 150 108 110 120 151 239 275 343 353 344 349 347 326 333 348 25 53 74 58 54 31 309 19 98 179 254
359 359 359 1 4 6 5 5 3 1 1 1 352 267 245 326 300 331 322 295 312 287 281 282 252 268 283 281 291 292 287 302 315 316 305 16 7 334 314 341 358 349 358 356 336 327 318 350 340 341 24 150 162 138 112 95 94 87 53 52 70 81 52 91 135 175 197 228 265 330 344 332 324 326 326 330 6 45 71 64 72 181 355 350 191 153 163
360 360 359 2 5 7 7 7 5 4 5 6 359 290 281 344 339 15 352 315 342 341 321 338 319 294 287 278 313 307 285 298 320 325 356 31 13 338 318 335 354 350 349 344 341 338 337 351 3 4 6 18 102 109 108 100 93 87 73 81 92 68 6 327 282 246 256 278 298 319 323 310 303 306 310 320 341 9 28 351 242 187 69 308 272 81 83
1 0 360 2 7 10 9 9 8 8 13 20 20 17 5 4 339 17 10 314 322 333 334 346 341 330 324 326 357 351 345 346 347 338 337 0 12 2 339 352 3 352 341 337 344 317 316 354 11 16 15 9 24 72 90 102 109 95 76 107 115 104 210 256 276 282 286 290 300 307 300 295 300 297 298 312 330 349 354 304 263 229 171 234 245 29 351
1 1 1 2 7 11 11 11 11 12 21 35 39 40 5 4 337 343 358 334 302 311 326 329 331 345 354 6 356 360 22 10 350 358 355 345 12 21 0 359 6 9 20 39 32 351 346 12 17 19 13 356 351 33 54 88 131 109 80 108 104 102 198 253 334 324 321 332 329 322 311 301 304 307 307 309 321 347 4 345 335 341 262 246 225 88 57
3 2 2 3 8 11 12 13 13 14 25 37 42 44 21 354 319 335 340 327 317 319 325 326 353 14 13 18 358 1 27 14 347 15 34 6 9 31 26 14 9 18 39 49 35 9 10 24 24 17 12 1 356 33 55 352 353 45 70 347 53 80 195 265 58 26 346 342 328 317 311 307 308 310 317 336 2 4 3 15 26 30 7 360 42 73 57
4 3 3 6 10 12 13 15 13 15 23 27 25 25 13 345 321 332 316 299 321 317 318 350 56 34 8 9 1 9 28 20 7 31 40 32 25 32 46 33 19 29 41 38 16 354 351 350 349 353 359 346 333 340 353 1 5 5 6 25 53 87 165 36 63 51 321 315 321 322 331 342 347 341 340 3 40 33 18 33 37 34 39 36 43 58 30
4 3 2 5 11 12 13 16 15 15 21 21 3 3 8 355 336 340 322 268 308 322 7 28 49 37 7 6 10 22 33 28 24 26 26 27 22 19 39 44 34 41 35 15 348 338 331 318 317 324 329 323 318 324 327 335 356 352 358 37 97 109 99 92 96 114 257 297 332 343 6 9 350 344 356 3 33 61 51 44 29 24 41 62 45 30 16
4 4 3 3 9 13 13 15 16 16 19 17 360 350 7 0 329 327 348 331 338 359 30 28 25 18 12 12 12 18 27 33 38 33 12 16 11 9 36 49 48 53 22 342 324 324 311 295 288 280 282 297 300 307 313 314 311 291 314 16 108 90 86 169 144 130 214 320 13 11 15 350 272 323 22 24 32 46 57 54 40 35 46 70 57 40 40
4 4 3 3 7 12 13 15 17 17 18 15 7 358 7 3 335 310 6 11 2 15 30 27 20 7 3 10 12 7 12 28 44 49 37 16 1 1 29 48 48 32 348 329 325 324 311 299 293 279 263 261 262 264 269 275 281 272 249 204 171 152 171 225 141 124 167 35 39 26 296 233 179 38 28 31 34 42 66 63 44 34 33 39 46 42 37
4 3 2 2 5 10 14 15 16 16 17 17 14 7 7 9 2 329 1 14 22 21 17 17 15 3 357 2 2 2 13 22 29 40 49 33 1 353 22 46 39 354 333 335 330 326 322 321 321 308 292 278 263 252 240 237 244 250 251 242 180 166 178 181 137 129 131 82 87 173 243 290 59 43 20 23 28 24 48 54 32 19 18 26 40 40 33
4 3 2 2 4 9 13 15 16 16 15 16 16 12 11 15 15 343 344 16 34 19 18 20 6 354 354 2 2 5 16 14 3 359 37 55 348 339 28 63 36 339 338 344 328 323 333 330 332 327 312 313 302 270 251 238 226 220 226 232 209 191 188 152 145 164 126 133 182 208 320 347 13 25 1 9 32 18 46 80 40 12 10 16 29 37 32
4 2 1 1 3 8 12 15 16 15 14 15 17 17 15 15 12 355 337 346 4 7 25 30 352 340 354 10 10 10 10 7 355 343 10 38 340 348 37 73 60 357 338 328 303 313 342 322 348 347 294 298 301 264 275 277 240 214 217 226 209 192 179 144 144 191 109 117 124 340 349 316 325 354 351 354 359 349 33 113 69 0 359 9 18 28 29
3 2 1 1 2 7 12 15 15 13 12 13 16 18 16 14 11 360 330 281 84 22 11 10 356 351 5 7 4 7 5 8 3 348 2 5 336 350 16 25 81 70 347 312 278 304 10 94 79 335 260 271 302 272 300 319 291 336 6 353 47 95 101 110 121 113 71 103 131 207 198 203 269 320 342 343 334 346 28 87 51 341 344 1 11 14 20
2 2 1 360 1 5 11 14 14 12 10 10 13 14 12 13 12 5 340 311 62 46 360 4 9 10 12 359 353 4 4 7 14 4 342 345 347 356 354 337 347 70 3 344 322 319 26 89 286 319 284 307 334 329 344 349 334 352 5 6 28 43 41 62 94 115 130 143 166 201 156 140 325 326 333 331 335 17 50 68 317 327 327 345 12 8 360
2 2 0 359 360 3 9 14 14 12 8 7 9 12 12 13 14 12 3 345 43 50 14 15 25 30 20 11 360 6 11 8 15 0 319 341 6 353 335 331 0 0 341 358 353 334 8 353 331 21 316 335 11 18 355 5 349 337 2 17 26 24 17 51 75 97 156 164 160 126 136 340 332 316 309 315 344 36 48 259 259 301 309 328 9 358 333
1 0 359 359 358 360 7 15 15 13 10 7 8 13 18 15 13 15 16 5 28 35 13 22 35 36 23 20 8 6 25 26 19 11 354 350 347 333 326 346 16 358 351 9 5 359 17 1 3 38 355 357 31 18 336 355 328 338 26 36 25 22 9 27 52 41 56 128 135 94 46 276 265 280 305 339 28 66 225 224 234 268 297 329 346 333 331
0 360 358 358 358 359 6 15 16 14 14 12 12 13 13 11 10 13 14 360 347 20 8 26 41 39 36 36 18 360 27 37 21 16 19 324 317 329 348 9 2 355 11 18 1 359 20 2 357 32 19 342 337 286 309 307 316 7 52 62 62 100 101 1 19 20 34 63 73 60 1 254 235 261 336 20 71 209 258 271 301 328 356 5 356 347 0
0 359 358 358 358 359 6 16 19 17 15 16 16 13 7 5 4 5 3 349 300 35 355 18 50 56 59 53 35 29 39 53 69 47 4 307 313 345 34 22 2 7 17 6 353 354 4 354 341 354 359 329 294 325 334 323 354 29 60 84 51 40 76 95 26 24 50 46 47 112 204 240 77 74 35 35 47 33 29 29 18 12 13 11 2 354 356
359 358 357 359 359 1 8 18 21 19 15 12 12 10 4 0 0 4 5 355 283 197 286 313 69 76 63 43 57 70 57 56 85 85 36 319 327 9 46 30 13 15 15 14 20 356 342 345 343 343 344 336 340 348 343 1 51 12 16 92 72 4 21 98 101 58 88 111 164 169 159 50 50 69 76 53 42 38 42 44 32 14 0 357 352 337 333
358 357 357 0 1 3 12 20 19 16 11 5 4 1 354 354 1 7 11 8 340 295 0 12 13 29 31 21 28 49 45 41 77 82 60 30 354 4 48 43 359 339 10 29 29 344 312 311 324 342 353 349 352 351 346 13 44 352 351 68 90 18 28 62 62 29 45 72 61 52 36 20 27 38 46 49 44 35 36 35 16 346 332 330 323 312 316
356 356 358 2 3 6 14 19 16 11 3 3 5 2 359 8 12 10 11 18 14 349 13 22 14 358 23 16 13 26 30 28 53 69 56 48 35 9 24 34 3 354 352 345 346 344 305 296 309 347 13 7 13 14 7 29 35 359 356 37 47 17 29 47 56 39 32 28 39 33 12 355 24 34 28 25 25 22 21 11 337 319 315 315 317 318 322
353 355 359 2 4 8 14 13 12 8 357 0 10 12 15 22 17 13 14 12 358 5 7 359 354 11 24 19 11 13 21 30 42 40 12 30 64 85 3 318 332 294 269 309 350 16 353 320 330 359 2 13 27 20 27 66 10 349 0 359 336 14 30 33 36 39 110 105 38 22 1 5 28 28 14 8 6 359 352 347 337 335 335 336 341 344 344
351 353 357 1 3 7 10 8 10 9 357 356 6 11 12 11 10 17 22 358 320 59 59 289 33 28 23 23 1 345 11 46 39 14 355 16 78 103 79 325 314 291 270 327 10 19 343 325 347 4 8 30 38 10 9 193 250 330 343 307 307 22 31 11 23 22 357 17 22 14 9 11 8 0 356 358 352 344 346 352 353 351 353 349 344 344 344
349 351 354 359 1 1 3 5 9 12 7 359 358 0 6 10 12 20 27 15 0 103 20 337 10 16 4 358 331 328 25 64 32 5 12 4 23 98 92 313 291 9 27 15 2 348 337 342 334 325 32 13 12 352 295 273 322 352 320 304 335 40 32 7 42 42 358 355 18 24 21 331 321 333 346 346 344 346 347 348 350 353 352 343 336 336 333
348 350 352 355 357 355 356 357 0 5 3 353 344 339 352 11 13 18 28 28 21 39 268 293 294 332 332 331 342 352 13 47 40 55 40 352 339 29 67 247 223 127 88 66 14 342 339 325 305 272 108 357 1 351 324 329 346 334 283 312 31 76 76 62 81 101 269 308 358 30 75 258 286 319 336 336 346 356 349 345 348 343 336 333 326 320 318
344 347 349 351 352 349 344 344 345 350 353 350 342 330 320 18 14 10 17 24 13 352 285 284 321 326 270 292 7 2 352 357 35 64 52 354 342 346 299 262 217 146 126 126 151 257 263 261 256 192 141 149 125 347 331 337 333 307 348 40 67 78 82 91 102 134 259 312 349 353 329 290 300 327 336 343 5 8 348 336 331 321 329 337 326 316 330
342 344 344 346 348 342 333 334 331 335 351 352 344 326 274 124 7 359 3 15 13 2 346 304 330 281 235 200 21 330 333 8 32 37 31 338 307 305 307 299 244 131 118 139 184 208 246 274 284 165 163 151 132 133 304 307 289 337 35 52 67 62 54 78 100 121 274 324 353 351 341 331 330 342 352 5 9 355 323 311 329 344 350 348 346 2 14
340 340 339 341 344 339 330 329 326 333 356 1 357 356 141 211 340 349 356 2 1 355 296 250 287 272 289 329 235 250 330 26 4 317 267 232 262 307 6 10 348 358 123 156 174 171 246 257 280 126 141 113 90 127 233 305 307 350 34 48 75 71 48 46 58 40 16 19 20 12 1 347 346 355 0 357 352 343 329 341 4 8 2 0 16 31 23
337 335 335 338 340 336 328 324 319 323 346 358 359 10 192 266 319 339 347 349 347 340 250 274 293 255 304 282 235 227 39 12 293 288 200 195 248 10 50 24 297 307 58 121 122 303 242 229 261 264 151 130 115 126 198 287 270 188 136 61 72 65 43 52 53 36 35 47 40 14 340 330 351 12 343 317 339 357 4 11 16 14 10 13 23 23 12
332 330 331 332 333 333 327 315 302 303 315 321 309 264 237 273 314 334 344 343 331 298 246 291 297 247 271 284 281 14 7 306 254 311 104 216 217 89 123 221 231 287 32 97 138 242 253 227 257 271 147 138 135 124 209 240 211 128 88 63 59 41 14 43 57 45 39 43 37 1 312 312 349 27 345 328 9 20 18 17 19 17 14 16 16 8 2
325 323 325 326 326 325 318 303 293 300 306 301 264 232 276 304 316 328 339 339 320 285 251 260 287 280 300 39 65 353 336 310 301 48 320 235 198 128 37 289 262 171 178 136 168 235 273 256 226 204 147 188 151 131 230 236 165 80 56 42 45 34 20 25 30 24 17 6 350 341 338 342 8 31 29 34 39 27 17 20 22 12 8 15 10 359 358
318 315 317 317 317 316 311 298 290 298 306 297 257 294 312 314 313 316 324 339 348 311 289 303 310 313 330 359 344 320 322 312 313 355 284 227 198 160 121 28 337 239 184 165 205 230 236 231 195 171 235 220 174 183 222 210 94 66 53 50 49 40 21 3 356 349 342 339 345 6 11 12 31 51 53 54 46 25 12 19 20 9 8 16 5 354 352
316 311 307 307 308 312 311 292 269 273 302 314 308 306 307 307 300 289 279 262 226 236 286 332 321 312 331 335 312 336 350 336 296 285 292 256 244 249 89 102 268 262 151 122 239 243 227 194 123 144 245 237 201 188 156 117 88 68 70 76 73 65 6 300 322 339 332 338 18 35 16 13 43 63 61 59 52 32 13 9 12 11 13 12 1 353 351
318 311 308 307 307 305 295 264 237 286 325 322 316 310 301 293 289 276 255 231 221 219 219 295 281 267 296 311 279 344 20 351 312 310 341 354 324 305 126 152 242 286 8 263 248 234 215 175 137 175 233 226 194 167 132 115 112 106 98 93 80 63 22 319 341 11 353 351 26 37 17 18 48 61 58 57 53 33 4 356 12 22 21 14 2 351 345
327 323 317 312 300 254 241 252 344 344 335 327 325 323 302 255 242 247 224 191 198 206 199 215 247 236 203 247 248 179 131 337 326 330 350 8 317 298 309 120 183 175 61 272 275 283 113 166 174 210 239 209 145 136 123 116 119 114 104 102 91 59 339 293 343 42 20 358 29 35 21 29 49 58 63 73 67 29 337 343 30 38 25 3 347 342 344
343 338 326 308 256 313 329 330 333 333 330 323 314 303 261 193 179 226 217 171 165 196 198 205 229 230 210 255 277 119 101 59 329 309 307 330 118 305 354 1 3 75 40 293 305 34 41 271 233 234 270 67 99 109 107 103 104 102 106 121 131 134 287 302 28 74 110 155 146 133 106 79 72 61 58 90 104 347 302 320 62 56 16 339 328 331 342
356 346 331 327 351 333 321 316 314 315 314 291 225 208 196 200 216 222 211 194 196 202 183 188 216 223 118 120 188 6 58 78 236 276 310 322 163 141 52 334 331 42 328 272 259 120 150 263 290 298 280 171 133 142 129 106 108 123 137 136 127 105 30 346 24 108 115 119 135 139 120 98 94 91 74 136 169 222 266 264 108 74 357 325 314 315 327
353 346 330 317 317 313 310 310 308 298 273 217 220 237 244 244 243 242 261 259 248 218 148 160 212 218 105 135 179 195 187 225 216 217 319 290 265 96 63 295 314 15 275 265 280 11 224 253 276 251 221 185 160 156 150 138 142 151 143 125 112 99 60 10 95 119 120 121 133 131 111 94 96 112 244 262 237 227 228 200 154 117 336 323 309 305 313
316 305 296 298 303 304 302 300 286 251 227 24 356 283 250 242 249 255 236 225 220 202 117 153 172 148 133 150 195 152 154 198 203 66 340 275 300 107 183 257 356 343 259 265 298 305 277 268 274 253 196 164 166 177 177 173 168 151 134 126 125 128 124 117 130 147 155 154 146 128 117 115 140 191 274 302 300 264 182 160 162 217 303 320 320 315 313
317 296 288 292 296 289 268 247 217 188 156 56 66 265 268 253 238 242 243 219 159 136 164 174 147 112 103 83 3 104 125 132 107 94 218 249 257 117 248 261 174 234 260 280 291 274 261 257 261 239 172 160 172 180 173 167 151 135 131 135 137 131 125 133 155 162 145 138 137 132 136 178 227 212 236 323 328 345 95 114 100 2 330 341 345 344 347
334 313 278 266 264 248 246 259 149 125 144 191 190 221 252 243 224 222 227 220 125 147 171 163 142 129 120 99 87 119 104 82 61 32 271 256 266 272 239 225 229 251 277 294 264 255 249 259 264 221 149 147 157 162 169 169 143 129 136 146 141 136 140 154 169 155 135 140 154 162 178 231 252 221 176 295 320 3 39 54 56 36 18 15 10 5 13
327 311 268 249 275 286 300 311 307 204 194 210 209 211 232 250 259 251 212 193 150 51 70 91 92 96 94 83 109 147 167 70 89 153 238 244 326 286 245 230 261 298 301 268 272 269 257 269 279 214 144 151 157 160 176 184 150 142 153 153 142 143 154 169 177 178 174 177 187 197 211 233 240 219 203 234 263 79 64 55 53 37 23 24 18 9 13
297 286 312 304 297 296 210 279 289 274 218 226 233 229 233 251 273 299 178 167 113 69 56 50 52 47 18 6 49 153 171 117 125 241 244 128 216 245 210 189 290 293 255 259 265 249 245 262 271 179 150 156 160 165 185 207 187 164 157 152 153 162 170 180 195 198 187 185 200 215 223 238 246 220 189 172 96 123 115 85 56 33 27 31 25 14 16
282 289 310 301 292 276 233 236 251 262 276 282 280 276 269 271 296 10 80 117 95 79 71 67 68 67 45 356 334 257 228 142 167 250 49 117 258 259 163 143 245 238 235 256 258 254 261 269 251 160 150 155 169 184 198 211 205 172 152 152 171 180 176 181 201 210 194 189 206 224 227 241 262 243 184 152 127 122 122 103 63 31 32 36 29 22 24
314 313 301 284 273 255 250 279 305 299 293 293 295 299 309 325 341 349 15 93 100 96 90 83 80 71 18 81 176 256 271 244 200 216 175 159 252 271 312 254 237 214 210 234 238 250 265 256 210 175 165 169 180 190 189 188 199 182 159 157 172 180 176 180 199 217 212 201 212 235 236 233 255 260 209 151 126 110 112 114 95 54 36 31 32 32 32
296 287 266 263 278 274 279 308 314 299 289 293 305 318 343 4 354 340 342 27 86 100 100 97 96 98 312 307 255 249 239 178 188 227 201 174 194 213 230 249 248 240 238 235 232 246 267 260 198 160 160 171 180 187 188 193 200 192 176 174 183 187 185 184 193 209 216 209 213 236 245 244 251 251 203 147 130 124 128 132 124 101 56 28 32 41 39
254 250 238 237 260 280 291 295 291 289 297 312 320 329 356 12 351 327 325 344 49 76 80 91 104 111 108 305 285 262 237 206 214 241 230 216 212 214 221 234 235 229 235 245 248 263 293 334 97 127 154 179 194 201 201 202 198 190 194 205 204 197 196 195 195 203 212 215 218 230 243 256 265 252 193 152 145 149 149 141 137 131 106 58 42 53 49
229 236 237 232 239 260 283 285 278 284 297 302 300 303 316 318 283 269 293 354 77 91 91 115 123 106 113 197 218 243 246 200 203 237 236 229 219 222 232 241 237 227 236 254 268 288 309 315 233 165 172 186 198 199 199 208 216 211 210 220 224 214 207 204 200 199 203 210 218 226 236 251 262 241 170 156 157 153 146 146 161 161 141 109 82 115 89
224 238 254 241 231 243 260 264 261 267 272 276 282 294 305 300 288 323 27 41 69 153 191 188 154 138 157 204 222 245 261 202 217 235 235 227 218 222 233 242 244 238 244 259 269 279 289 292 263 195 188 193 192 189 196 217 235 232 217 217 229 234 225 213 206 202 202 204 212 221 233 247 254 221 161 154 162 159 153 158 170 170 164 169 181 168 149